Location: Baumgarten
(49.0970°N, 12.7493°E)
Time: 02:17:50
(UTC+00:00)

Atlas Centaur 2 - Pass Details

Date: 05 July 2020
Orbit: 459 x 1310 km, 30.4° (Epoch: 04 August)

Event Time Altitude Azimuth Distance (km) Brightness Sun altitude
Rises 20:29:25 0° 233° (SW) 3,356 5.3 -9.4°
Reaches altitude 10° 20:33:02 10° 209° (SSW) 2,610 4.5 -9.8°
Maximum altitude 20:36:17 14° 178° (S) 2,454 4.1 -10.1°
Enters shadow 20:38:46 12° 156° (SSE) 2,724 4.2 -10.4°
